Wind_Speed
27 27 27 26 25 24 23 23 22 22 20 18 17 17 18 18 18 17 17 17 17 18 18 17 17 17 16 16 15 15 15 15 15 15 15 14 14 13 13 12 12 11 10 9 7 7 8 9 9 9 8 9 10 9 8 7 7 7 7 7 6 6 6 5 6 8 10 10 10 11 11 13 14 15 16 16 15 13 12 13 15 17 18 18 18
28 28 27 27 26 25 24 23 22 22 21 20 19 18 18 19 18 18 18 18 18 18 18 17 17 17 17 17 17 16 15 15 15 15 16 15 14 13 13 13 13 11 10 10 9 8 8 9 10 10 9 10 10 9 8 8 8 8 7 7 7 7 7 7 6 7 10 11 11 11 12 13 14 15 15 15 15 15 14 14 16 17 17 17 18
28 28 27 27 26 25 24 23 22 22 21 21 20 19 18 18 18 18 18 17 18 18 18 17 17 17 17 17 17 17 16 15 15 15 15 15 14 14 13 12 12 11 11 11 11 9 9 10 10 9 8 9 9 8 9 8 8 8 8 8 9 9 8 8 8 8 10 12 12 12 13 13 14 14 15 15 15 15 15 15 15 16 16 17 19
28 27 27 27 26 25 24 23 22 22 22 21 20 19 18 18 17 17 17 16 16 17 17 17 16 16 17 18 18 17 16 16 16 16 15 15 15 15 14 13 12 12 11 11 11 11 10 10 10 9 9 9 9 9 9 9 9 10 11 11 11 11 10 10 10 10 11 12 12 13 13 13 14 14 15 16 15 15 15 15 16 16 17 18 19
28 28 28 27 26 25 25 24 23 22 22 22 21 20 19 19 18 17 16 16 16 16 16 17 17 17 18 17 18 18 17 17 17 17 16 16 16 15 14 14 13 13 12 12 12 12 11 11 11 10 10 11 11 10 10 10 11 12 13 13 13 13 13 13 12 12 12 14 14 13 13 13 14 14 14 15 16 15 15 15 16 17 18 19 19
27 28 27 27 27 26 25 25 24 24 23 23 22 21 21 20 19 18 17 17 16 16 16 17 17 18 18 17 18 18 18 18 18 17 17 17 17 16 15 14 14 14 13 13 13 13 13 13 13 12 12 12 11 11 11 12 13 13 13 13 13 13 13 14 14 13 13 13 13 13 13 14 14 14 14 14 15 16 16 17 17 17 19 20 21
27 27 27 27 27 27 27 27 26 25 24 23 22 22 22 21 20 19 18 17 17 18 18 18 18 18 17 17 18 18 18 18 18 17 17 16 17 17 16 16 15 15 15 14 13 13 14 15 15 13 12 12 12 13 13 13 13 12 11 11 12 13 14 15 14 13 13 12 12 12 13 13 13 14 13 13 14 14 16 18 19 20 20 21 22
26 26 26 27 27 28 28 27 27 26 25 24 22 22 22 22 21 20 19 18 18 18 18 18 18 18 18 18 18 18 18 19 18 18 17 17 17 17 17 17 17 16 15 15 14 14 14 15 15 14 13 13 14 14 13 12 11 12 12 12 11 12 13 15 15 13 12 12 12 13 13 13 13 13 13 13 14 14 15 15 16 19 21 20 20
27 27 27 27 28 28 28 27 27 26 25 24 23 22 22 22 22 21 20 19 19 18 18 19 19 20 19 19 19 19 19 19 18 18 18 18 18 18 18 18 17 17 17 16 15 14 14 14 14 14 14 14 14 13 12 11 12 13 13 12 11 10 11 12 13 12 12 12 13 13 13 13 12 12 13 12 12 14 15 15 14 16 19 18 18
27 27 28 29 29 28 27 27 27 27 26 25 24 23 22 22 22 22 22 21 20 20 19 19 20 21 21 20 20 20 20 20 19 18 18 18 19 19 18 18 17 17 17 17 17 16 15 14 14 14 15 15 14 13 12 11 11 12 12 10 9 9 9 9 10 11 12 13 14 13 12 13 12 11 11 11 11 13 15 14 14 14 15 15 15
26 27 28 28 27 27 27 26 26 26 26 26 25 23 22 23 23 23 23 23 22 22 21 21 21 21 21 21 21 21 21 21 20 19 19 19 20 20 19 18 18 17 18 18 18 18 16 16 15 15 15 14 13 12 12 12 11 11 11 10 10 9 9 8 9 10 11 13 14 13 12 13 12 10 9 10 12 13 13 11 13 14 13 13 13
23 24 25 24 24 24 24 25 25 25 25 26 26 25 23 23 23 23 24 24 23 22 21 21 21 21 21 21 22 22 22 21 21 21 21 20 21 21 21 20 19 19 19 19 19 19 18 17 17 16 15 14 13 13 12 12 11 11 11 10 10 9 9 9 9 10 11 12 13 13 12 12 11 9 8 10 12 12 11 10 11 11 11 11 11
18 17 18 20 22 23 23 22 23 24 25 25 25 25 25 25 24 24 24 23 23 23 22 21 21 21 21 22 22 22 22 21 22 22 22 22 21 21 22 22 21 21 21 21 21 21 20 19 18 17 16 16 15 14 13 12 11 11 11 10 10 10 10 10 10 10 11 12 12 11 10 10 9 8 9 10 11 11 11 10 10 9 9 10 11
18 16 15 14 14 16 19 21 22 23 24 24 25 25 25 26 25 25 25 24 24 24 23 22 22 22 22 23 23 23 22 22 23 23 22 22 22 22 22 22 22 22 22 22 22 22 21 21 20 19 19 18 17 15 14 13 12 11 10 10 11 11 11 11 10 10 10 9 8 7 6 7 9 10 11 11 10 10 9 8 8 7 8 9 9
17 17 17 16 14 14 15 18 22 24 24 23 23 23 25 26 26 26 25 24 24 24 24 23 23 22 22 22 22 23 23 23 23 23 22 22 22 22 23 23 23 22 22 22 22 22 22 21 21 21 20 20 19 17 16 14 13 12 11 11 11 11 10 9 9 8 7 7 5 5 6 8 10 10 9 9 8 6 5 5 6 7 9 10 8
13 11 12 16 20 19 17 18 19 20 20 19 17 17 18 21 24 25 25 23 22 22 22 22 22 22 22 21 20 21 22 23 23 23 22 22 22 23 23 23 23 23 23 23 22 22 22 21 21 21 20 20 19 18 16 15 13 13 12 11 10 10 9 8 8 7 6 6 5 5 6 6 6 6 5 5 5 4 4 4 6 9 9 8 7
15 14 13 14 17 19 18 18 18 17 16 17 18 17 16 15 17 18 20 22 21 20 19 19 20 21 21 20 19 19 20 21 21 21 21 20 20 21 21 21 22 22 23 23 22 21 20 19 19 18 19 19 18 17 17 15 14 13 12 11 10 10 9 8 6 6 5 4 4 2 1 0 0 1 2 3 4 5 5 6 8 10 10 7 6
15 19 18 17 16 16 16 17 17 17 16 17 19 21 21 19 17 15 15 17 19 18 17 17 16 16 16 16 16 16 16 17 17 17 18 18 18 18 17 17 17 19 20 20 19 17 15 15 16 17 17 18 17 16 16 15 14 13 12 11 11 10 9 7 5 4 2 2 3 5 6 6 5 5 5 6 6 7 8 9 9 9 9 7 7
15 17 16 17 18 16 13 14 13 14 17 19 19 18 18 17 18 16 14 15 16 15 14 14 14 12 11 11 11 11 11 12 13 13 13 14 14 14 13 12 13 14 15 16 16 15 14 15 17 18 17 17 16 15 15 14 13 13 12 11 11 10 9 8 6 7 7 8 10 10 10 9 8 7 7 7 7 8 9 8 8 8 8 6 6
14 14 13 15 16 13 10 9 8 11 17 18 14 13 14 14 15 15 13 13 14 12 11 11 10 8 7 6 7 8 8 9 9 9 9 9 9 10 10 10 9 9 11 14 15 14 14 15 16 16 16 16 15 14 13 12 10 10 9 9 9 9 8 7 7 9 11 12 12 11 10 9 8 7 8 8 9 9 9 9 8 8 7 5 4
10 10 9 9 8 7 6 7 8 12 17 16 12 12 14 16 17 16 13 12 13 11 9 6 4 4 4 4 5 5 5 5 5 5 5 6 6 6 7 7 8 7 8 11 12 11 12 12 12 12 13 14 14 13 12 10 8 7 6 7 7 8 8 9 11 12 13 13 12 12 11 9 8 9 10 11 11 11 10 10 9 7 5 3 3
7 7 5 2 1 1 2 4 6 9 11 11 11 13 14 14 15 12 8 7 9 8 5 3 4 6 6 5 4 4 4 2 1 0 2 4 5 5 6 6 7 7 10 14 14 11 11 11 9 8 10 12 12 12 11 10 8 6 5 6 7 8 9 12 13 13 12 11 11 11 11 10 10 11 12 12 11 10 10 9 8 6 5 5 5
8 8 8 7 7 6 4 2 2 4 4 3 5 7 9 10 10 8 6 6 6 6 5 5 7 8 9 9 8 9 9 9 9 8 7 7 6 5 5 3 2 2 4 9 10 9 8 7 5 5 8 10 11 9 7 6 5 5 5 7 9 9 11 12 13 11 10 9 10 11 11 11 11 11 11 10 9 8 8 7 6 6 6 7 8
10 10 11 11 11 11 10 8 5 4 3 2 1 2 4 6 7 8 7 8 8 8 8 8 10 11 12 12 12 11 12 13 14 14 13 13 13 12 12 11 9 8 8 5 4 4 4 3 1 1 4 7 8 7 5 4 4 3 4 6 9 10 11 12 13 12 11 11 11 11 11 10 9 9 8 8 7 6 6 6 5 5 7 7 8
14 15 16 16 15 16 15 14 11 10 8 6 5 3 2 6 8 9 9 11 13 14 13 12 12 13 13 13 12 10 9 10 11 11 12 13 12 12 12 12 12 12 12 13 12 9 6 5 3 3 3 2 3 4 5 6 5 5 7 9 12 14 14 14 13 13 13 13 12 11 10 8 7 7 6 5 5 5 5 5 4 4 6 6 7
16 16 16 16 15 16 16 16 14 13 11 9 10 12 12 13 13 13 14 15 16 15 14 12 13 14 13 12 11 10 8 8 9 9 10 10 10 10 10 10 11 12 12 14 13 9 6 4 2 4 4 4 3 5 7 8 9 10 11 13 15 15 14 14 13 13 13 12 11 9 8 7 6 5 4 4 5 6 6 5 4 5 6 6 6
14 12 12 12 12 12 13 14 13 12 11 11 13 16 16 16 16 16 15 15 14 13 12 11 12 13 12 10 9 8 7 7 7 7 8 9 8 8 8 8 8 9 8 7 5 3 2 2 4 6 6 5 7 10 12 14 15 16 16 16 16 15 14 13 12 13 12 11 9 8 7 5 4 4 5 6 7 8 8 7 7 7 7 7 8
13 13 10 9 8 9 10 11 11 11 11 11 13 15 14 14 14 14 13 12 11 11 10 10 11 11 11 10 9 8 7 6 6 7 7 7 6 5 5 5 5 5 4 2 3 4 3 2 4 6 8 11 14 16 17 18 19 18 18 17 16 15 13 12 12 12 11 10 9 8 6 5 5 6 7 7 9 9 8 8 9 9 9 9 10
11 12 11 9 8 8 9 10 10 11 11 12 13 14 12 11 11 10 9 8 8 8 9 9 9 10 10 10 9 8 7 6 5 5 4 3 3 3 3 4 4 4 3 3 7 9 9 10 13 16 16 17 18 18 19 19 18 17 16 15 14 13 12 11 12 12 10 9 9 8 7 6 7 7 7 8 9 9 8 9 9 9 10 11 12
10 10 10 9 9 8 8 9 10 11 11 13 14 14 13 12 11 10 9 7 5 5 7 7 7 8 9 9 8 7 6 5 4 2 2 3 4 5 6 5 5 4 3 3 8 12 14 15 17 18 19 19 19 18 17 16 15 15 14 13 12 11 11 11 11 10 9 9 8 7 6 6 7 7 7 8 8 8 8 9 10 10 11 11 10
11 9 9 9 9 8 8 9 10 11 12 12 12 13 13 12 11 10 10 9 7 5 4 4 5 6 7 7 7 7 6 4 2 3 5 6 8 8 8 6 5 3 2 3 8 13 16 16 17 17 18 18 17 16 15 14 13 12 11 10 10 10 9 9 8 7 7 7 7 6 6 6 6 6 6 6 7 7 8 9 10 11 12 11 9
10 9 8 8 8 8 8 8 8 10 11 11 10 10 11 11 11 11 9 8 8 8 8 7 7 6 5 5 6 6 4 4 4 6 7 7 7 7 5 4 3 3 2 5 10 14 15 16 16 16 17 17 16 15 13 12 11 9 8 8 8 8 7 7 6 5 5 6 6 6 6 6 5 5 5 5 6 7 9 10 11 12 12 11 9
7 7 7 7 7 7 6 6 7 7 8 8 8 7 8 9 10 11 10 9 8 8 8 8 7 7 6 5 5 5 5 6 6 7 7 7 8 8 7 6 5 5 4 7 12 15 15 15 16 15 15 15 14 12 11 9 8 7 6 7 7 6 6 5 4 4 5 5 5 6 6 5 5 5 5 6 7 8 10 11 12 13 12 11 8
5 4 5 6 6 5 4 4 4 4 5 5 5 5 5 6 8 10 10 9 9 8 7 7 7 6 5 5 5 6 7 7 8 9 9 9 9 8 7 7 7 7 7 11 15 16 16 16 15 14 13 12 11 10 9 8 7 5 5 5 5 5 5 4 3 4 5 5 6 6 6 6 5 6 6 7 8 9 11 12 12 12 11 9 8
5 3 3 4 4 3 3 2 2 2 3 2 3 3 3 4 6 7 8 9 10 9 8 8 7 7 6 6 6 7 7 8 10 10 9 9 8 8 9 10 11 11 12 13 15 15 14 14 13 12 11 10 9 8 8 7 7 6 6 6 6 6 5 4 4 4 5 5 6 6 6 6 6 7 8 9 10 11 11 12 12 11 9 9 8
5 4 4 5 4 3 2 2 3 2 2 2 2 3 1 2 3 3 4 6 8 9 9 9 8 7 6 6 6 7 7 8 9 9 9 8 7 8 10 12 12 12 12 12 12 12 11 11 10 10 9 8 7 6 6 6 7 6 6 6 6 5 5 4 4 4 5 5 6 6 6 6 7 8 9 10 11 11 10 11 11 11 9 9 8
4 3 3 4 4 2 1 1 1 2 2 2 3 3 2 0 2 4 4 5 6 8 9 9 8 8 7 7 7 7 7 7 8 9 9 9 8 9 11 11 11 11 10 10 9 9 10 9 9 8 8 7 7 6 6 6 6 5 5 5 4 4 4 4 4 4 4 5 5 5 6 7 8 9 10 10 11 12 11 10 10 10 9 9 8
3 3 2 2 2 1 0 1 1 1 1 1 2 2 2 1 2 4 5 6 7 8 9 10 9 9 8 8 8 7 7 6 6 8 9 8 8 8 9 8 8 7 8 8 8 8 9 9 8 7 7 7 6 6 6 6 5 4 3 3 2 3 3 3 3 3 4 4 5 5 7 8 9 10 11 10 11 12 13 12 11 10 9 8 8
4 3 2 1 0 1 2 2 1 1 2 4 4 3 2 2 2 3 4 6 7 9 10 11 12 11 10 10 10 9 8 7 6 7 7 7 6 6 5 5 5 5 6 7 6 7 7 7 7 7 6 6 6 5 5 5 4 3 3 2 1 1 1 1 2 2 3 4 5 5 7 8 9 11 12 10 10 12 13 12 10 9 9 9 8
4 3 3 2 1 2 4 4 3 3 4 4 5 5 4 3 3 3 4 4 5 6 7 9 12 13 13 12 12 11 10 9 8 7 7 6 6 4 3 3 4 5 6 6 6 6 6 6 6 5 5 5 5 5 4 4 3 3 2 2 2 2 1 1 1 2 3 4 5 6 7 9 10 12 13 12 11 12 12 10 8 8 8 8 8
5 4 4 4 3 3 5 5 5 4 4 5 5 6 5 4 4 4 4 4 5 5 6 6 8 9 11 13 13 12 11 10 9 8 7 6 5 5 4 4 4 5 6 6 6 6 6 6 5 4 4 4 4 3 3 3 3 2 2 2 2 2 2 1 0 1 2 3 4 6 8 9 11 13 14 12 12 13 12 10 8 8 7 7 7
7 5 5 5 5 5 5 6 6 6 6 6 7 7 7 6 6 6 6 5 5 5 5 5 5 6 8 11 13 12 11 10 10 9 8 6 5 5 5 5 5 5 6 6 6 5 5 5 4 4 4 3 3 3 3 2 2 2 2 2 2 2 2 1 1 1 2 3 4 6 8 10 12 14 15 14 13 13 12 9 8 8 7 7 7
9 8 7 7 7 7 7 8 9 9 9 9 9 9 9 9 9 8 8 7 7 7 6 6 5 5 6 9 12 13 11 11 10 9 8 7 7 7 6 6 6 6 6 5 5 4 3 3 3 3 4 3 4 4 3 3 3 3 2 1 1 1 1 1 1 1 2 4 5 7 10 12 14 16 16 15 14 13 11 9 8 7 7 7 7
8 8 8 8 8 8 9 9 10 11 11 12 11 11 11 11 11 10 10 10 9 9 8 8 7 6 6 9 12 13 12 10 9 8 8 8 8 8 7 7 7 6 5 4 3 2 2 2 3 3 4 4 4 4 4 3 2 1 1 1 1 2 2 1 1 2 3 5 7 9 11 13 15 16 15 13 12 11 10 8 8 8 8 7 7
5 6 8 9 10 11 11 12 12 13 13 13 14 14 13 12 11 11 10 11 11 10 9 9 9 8 9 10 12 13 11 10 9 8 8 8 8 7 7 7 6 4 3 3 2 1 1 2 2 3 3 3 3 3 3 2 1 1 1 3 4 3 2 1 1 2 4 6 8 10 11 13 15 15 13 12 11 10 8 8 8 8 8 8 8
4 5 7 8 10 11 12 13 13 14 14 14 14 15 15 14 13 12 11 10 10 10 10 10 11 11 11 12 12 12 11 9 9 8 8 7 7 7 6 5 4 3 3 2 1 1 0 1 2 2 3 3 3 2 2 1 2 1 3 4 2 1 1 1 1 3 6 9 10 10 11 13 15 15 14 13 11 9 8 8 8 8 7 8 8
5 6 7 8 9 10 11 12 14 14 14 14 14 14 14 14 14 14 13 11 9 9 9 9 10 11 12 12 11 10 9 8 8 7 7 6 5 4 4 4 4 4 4 3 2 1 1 1 1 2 3 2 2 1 0 2 3 3 4 3 2 2 1 0 2 6 9 10 9 8 9 12 15 15 15 13 11 9 8 8 7 7 7 7 8
7 7 7 8 8 9 10 11 12 12 12 13 13 12 13 13 14 15 15 13 11 10 8 8 10 12 12 11 10 10 9 9 8 7 6 6 4 4 4 4 5 5 4 4 3 3 2 2 2 3 3 2 2 1 1 2 3 3 3 3 3 3 1 1 4 7 9 8 7 7 10 13 15 15 13 11 9 9 8 7 6 6 7 8 8
8 8 7 7 7 7 8 8 8 8 9 10 10 10 11 11 12 13 14 13 12 11 9 8 10 12 13 12 11 11 10 10 9 8 7 6 5 5 6 6 6 6 6 5 4 4 3 3 3 3 3 3 3 2 2 2 3 3 3 3 4 3 1 4 6 7 7 7 7 9 12 13 14 15 14 11 9 8 8 7 6 7 8 8 9
8 8 7 6 5 5 5 6 6 6 7 8 8 9 9 10 10 11 11 10 10 9 9 9 11 13 13 12 12 12 10 9 7 7 7 6 5 6 7 8 7 7 7 6 5 5 4 4 4 3 4 4 4 4 4 4 4 3 4 4 3 3 5 7 6 5 7 9 9 10 12 12 12 14 14 11 8 7 7 7 8 8 8 9 9
7 6 6 5 5 5 6 6 7 7 7 7 7 7 7 8 8 8 8 8 8 8 9 9 10 11 12 13 12 11 9 7 7 8 8 7 7 7 8 9 9 9 9 8 7 6 5 5 4 4 4 5 5 6 7 7 5 5 5 6 5 7 8 7 5 7 10 9 8 9 11 11 11 14 14 11 8 7 7 8 8 9 9 10 11
Wind_Direction
211 214 217 219 221 223 226 227 228 230 233 236 238 239 239 239 240 241 243 242 241 242 245 247 248 246 246 246 244 242 247 251 252 252 254 257 264 269 265 259 259 265 268 265 266 276 285 287 282 277 279 282 288 296 304 312 312 304 299 302 311 316 308 284 258 282 305 314 318 326 336 341 345 348 349 349 349 350 351 348 346 349 350 353 358
211 214 216 218 221 224 227 229 230 232 234 236 239 240 240 240 241 242 244 244 244 244 246 248 247 245 245 246 245 247 252 253 251 251 254 257 262 266 263 258 260 267 269 266 267 275 284 286 284 281 281 283 286 290 297 307 313 309 301 299 305 307 299 282 266 270 291 305 314 320 328 335 339 343 345 346 346 343 341 341 342 345 348 351 356
213 214 216 219 222 224 227 230 231 233 233 235 237 239 239 240 242 244 245 245 245 245 246 246 245 244 245 245 245 248 252 251 248 249 252 254 259 262 259 256 258 263 266 266 266 272 278 280 279 278 281 284 286 288 291 299 306 306 303 303 303 305 304 291 277 271 282 298 309 316 323 330 334 338 340 342 343 341 340 342 342 344 346 351 356
213 214 216 219 222 223 225 228 229 231 231 233 235 237 238 239 243 245 245 246 245 244 243 243 242 244 246 247 246 249 251 250 249 250 252 254 257 260 258 255 256 259 262 266 266 267 272 275 275 275 280 286 288 288 289 293 299 301 300 300 299 299 303 301 293 285 280 284 297 310 319 325 328 335 338 337 337 339 340 341 340 342 346 351 356
213 213 216 218 219 221 223 224 226 228 229 231 234 237 238 241 245 245 244 245 246 244 242 241 242 245 248 250 250 250 250 251 252 253 254 255 256 258 258 257 257 259 262 268 269 265 264 268 272 275 278 283 286 288 293 295 299 302 299 296 296 295 296 297 298 295 282 278 289 304 313 318 324 333 338 336 336 338 340 339 339 344 346 350 356
213 213 214 215 217 220 221 222 224 226 228 230 234 237 239 241 244 245 245 248 249 247 245 244 245 247 250 252 252 250 250 252 254 255 256 256 255 255 258 258 259 261 264 268 270 267 264 266 271 274 277 283 287 291 296 298 300 302 298 292 290 289 289 289 292 295 287 281 286 297 307 315 322 330 337 338 338 340 340 338 340 346 348 348 354
212 213 214 214 216 219 221 223 225 227 229 231 235 239 241 242 243 243 245 251 251 249 248 246 246 248 251 252 251 251 252 253 255 256 257 255 253 254 257 260 262 263 266 269 271 271 270 270 271 274 278 284 290 293 295 296 297 300 298 293 288 284 283 282 285 288 285 281 282 291 302 309 317 325 330 334 337 340 343 340 339 344 347 348 351
211 213 214 214 217 220 222 224 226 228 231 233 236 239 241 242 241 241 245 250 251 249 248 248 248 249 251 252 252 252 255 256 255 255 254 253 253 255 259 262 263 263 264 267 272 274 274 271 271 273 278 284 290 292 290 287 292 297 300 300 295 287 281 279 281 282 277 274 277 286 294 300 310 319 322 330 336 340 344 341 335 337 341 344 349
211 212 213 216 220 222 223 224 226 229 231 233 235 238 241 242 241 241 244 248 249 249 251 252 251 252 253 254 253 252 254 255 254 253 253 252 253 257 261 262 261 261 261 263 268 273 274 273 274 276 279 282 285 286 281 280 286 291 293 296 296 293 286 282 280 276 268 267 274 282 288 292 303 314 320 331 338 335 337 336 330 333 335 338 346
211 211 214 218 222 223 224 225 226 228 229 232 235 237 240 241 242 243 244 246 249 251 254 255 254 256 258 258 257 253 252 253 253 254 255 255 256 258 260 261 259 260 262 263 265 269 272 276 279 279 278 278 280 279 275 278 283 284 286 289 293 296 295 290 285 277 268 269 275 280 281 284 297 311 316 325 330 329 332 332 329 331 334 337 344
213 213 216 220 222 223 225 226 227 228 230 232 235 237 241 243 244 245 246 248 251 253 255 256 256 258 261 262 261 258 256 255 255 256 258 260 260 259 258 259 260 261 263 264 265 269 271 275 280 281 276 271 269 269 268 271 273 275 280 286 291 296 298 297 294 286 278 275 277 278 276 283 295 304 310 319 325 326 326 328 328 331 337 339 337
216 216 217 219 222 223 225 227 228 230 233 235 237 238 242 245 247 248 248 249 251 254 255 256 257 259 262 263 262 260 261 262 261 262 263 263 262 259 257 258 260 262 263 263 265 268 271 274 277 278 272 263 260 260 260 262 263 266 275 282 287 290 294 297 295 290 285 279 277 277 277 284 294 303 314 320 321 321 321 324 326 329 337 337 328
215 218 220 222 223 223 225 227 231 234 236 237 240 241 242 246 249 250 250 250 251 253 254 256 258 260 261 261 261 261 263 266 267 266 266 264 262 258 256 257 260 262 264 264 265 267 269 270 271 270 266 260 257 255 254 256 260 265 273 277 281 285 287 290 290 287 285 278 275 278 278 283 294 305 313 313 312 315 316 320 327 330 332 327 324
205 210 216 222 227 228 226 225 228 234 238 239 242 242 243 246 249 250 250 251 253 255 257 259 260 262 262 259 259 260 261 264 266 266 264 263 261 258 255 257 260 262 264 265 267 268 268 268 267 267 263 257 255 253 252 256 259 264 271 275 280 283 283 283 282 279 277 271 268 271 270 279 293 301 305 306 306 310 312 320 331 329 322 321 325
203 208 211 216 229 245 252 244 234 231 235 240 242 243 246 248 250 252 253 253 255 257 259 260 259 260 259 258 257 256 255 257 259 260 260 260 259 257 256 258 260 263 264 265 268 270 270 268 267 266 260 252 249 250 251 255 259 263 270 274 276 276 274 273 269 265 265 262 261 268 276 287 295 299 305 305 300 306 315 327 331 324 325 332 340
206 223 228 226 228 235 251 265 259 241 229 230 234 238 247 253 253 252 251 251 252 253 253 253 255 255 254 254 253 251 250 251 251 252 254 255 256 256 257 259 261 262 263 265 268 270 271 269 266 262 253 245 244 247 249 253 259 263 266 267 265 262 258 257 258 259 263 269 278 286 289 293 298 301 308 310 312 330 338 337 344 345 348 351 351
209 229 245 246 237 229 231 248 264 258 234 221 223 229 239 252 258 257 252 247 243 243 245 245 248 252 252 251 249 246 247 248 248 248 249 251 253 255 258 261 263 264 265 266 267 268 268 265 258 251 245 242 243 247 249 252 257 260 260 256 252 245 241 245 255 262 271 282 287 287 276 280 22 19 15 11 12 8 1 8 13 10 10 9 351
221 228 238 247 245 236 227 229 243 253 247 236 234 235 236 239 244 251 257 251 240 233 234 236 239 244 248 248 247 244 244 246 246 248 249 251 254 257 259 263 266 267 266 263 261 259 255 249 243 239 239 241 244 246 249 252 253 253 250 244 238 233 229 228 226 220 211 166 134 126 119 111 102 89 73 53 35 23 24 33 30 18 20 19 351
212 221 234 245 243 237 231 226 228 240 248 246 242 239 237 236 237 240 250 258 250 232 224 227 229 230 234 239 240 236 235 237 240 243 244 247 251 255 257 260 265 268 263 255 250 242 233 231 235 235 236 238 241 243 245 247 249 247 244 237 230 225 222 219 204 181 161 143 132 124 114 105 94 80 67 49 31 25 28 30 21 14 17 14 356
197 208 223 236 240 239 236 235 231 236 243 243 233 227 234 239 240 239 241 252 256 246 232 229 225 218 214 216 215 214 215 221 229 233 235 238 244 249 253 255 263 269 260 250 243 232 225 230 234 234 234 234 236 239 240 240 240 239 238 232 221 212 207 201 185 168 155 141 130 120 110 99 84 68 57 46 39 32 24 17 11 10 11 4 11
175 184 200 220 235 244 250 253 246 240 244 241 224 218 227 231 232 235 237 243 249 249 243 232 203 169 163 176 187 194 201 214 224 232 242 250 254 261 270 271 269 259 243 244 245 230 221 226 228 228 230 231 232 233 232 227 221 217 223 223 213 207 199 178 159 149 141 130 120 110 100 89 74 61 52 46 43 35 24 17 13 11 15 22 47
125 126 127 114 32 10 291 264 246 240 247 246 230 224 227 229 231 235 233 231 237 241 237 201 149 139 139 144 152 144 135 147 171 287 311 312 304 301 309 305 286 266 246 250 259 252 233 231 234 235 234 231 229 225 219 211 199 185 189 191 184 184 177 158 144 136 128 119 110 98 85 73 61 52 46 42 40 32 24 23 25 30 49 61 65
80 80 78 66 54 56 63 86 191 208 223 238 240 234 231 231 231 223 202 199 220 233 224 185 153 138 125 114 107 100 94 89 83 78 71 59 47 32 29 26 344 315 257 249 259 263 250 241 242 251 250 240 230 219 207 195 177 167 178 174 161 158 156 150 145 141 129 114 98 83 71 60 50 43 39 37 37 32 28 31 42 59 70 68 65
74 76 76 74 74 78 80 81 91 106 111 102 343 284 253 238 224 208 194 189 191 188 175 159 142 128 115 105 95 85 81 79 74 70 69 68 65 62 61 60 55 49 46 35 356 322 299 281 245 256 264 249 231 213 193 165 148 179 206 174 151 152 157 153 147 138 121 102 86 74 64 54 45 41 37 35 34 33 34 43 59 69 68 61 55
81 81 79 80 83 86 83 79 74 70 68 64 60 72 170 194 188 179 169 163 160 154 148 145 139 129 120 110 99 89 82 80 75 69 66 64 60 57 55 49 43 38 35 31 22 4 350 3 33 81 111 145 176 179 172 156 158 200 207 173 152 152 151 142 131 119 103 91 82 75 68 59 50 46 39 29 22 26 42 58 69 68 62 51 42
86 81 76 76 78 80 80 78 75 72 73 77 86 97 112 129 138 143 145 147 149 146 142 141 137 130 123 115 110 109 100 91 88 82 75 71 65 58 55 51 42 33 31 30 22 5 351 346 287 209 175 155 157 165 166 163 167 177 172 154 142 138 132 123 114 104 94 87 80 73 67 60 52 48 38 24 29 44 55 58 52 44 35 22 22
82 78 79 84 84 83 85 85 82 82 86 90 97 102 108 116 123 130 135 139 141 141 141 142 139 136 133 127 125 124 115 100 90 75 62 62 64 58 51 47 43 39 38 37 28 1 338 306 257 235 215 178 149 143 142 142 142 141 134 127 121 115 108 103 94 86 81 75 68 62 57 47 44 49 49 50 56 59 56 46 40 38 28 11 12
67 66 74 90 96 97 97 93 88 89 94 97 98 100 104 110 117 125 132 138 141 143 147 152 155 153 149 144 137 125 109 93 82 73 65 61 62 58 46 39 43 52 60 90 147 156 161 160 155 157 156 145 133 127 124 123 121 117 112 107 102 95 88 83 75 69 65 58 53 50 43 41 59 70 70 68 67 62 51 41 40 39 30 21 23
58 55 57 70 87 98 97 89 84 88 95 100 99 97 95 96 101 110 122 136 149 158 164 170 174 170 159 149 138 126 117 107 95 89 84 66 43 25 19 20 28 44 57 116 152 156 156 145 134 133 135 133 126 119 115 111 107 102 98 94 90 83 76 67 61 60 54 44 42 42 43 58 79 84 78 71 66 59 46 38 35 29 23 25 29
53 50 47 54 69 84 88 88 92 97 100 102 101 99 95 90 88 90 92 98 122 161 182 189 186 176 163 149 138 131 130 129 120 85 12 351 340 330 328 333 342 2 32 100 147 152 148 137 130 130 129 127 122 117 113 109 104 98 93 86 78 72 66 60 58 56 49 43 46 52 60 77 88 85 76 68 61 49 36 29 25 22 21 25 26
46 44 42 44 50 62 76 89 101 109 111 110 108 107 103 98 92 88 85 83 90 106 137 161 166 166 161 149 140 135 127 114 79 5 345 339 332 324 320 320 326 345 22 120 145 147 142 132 128 127 126 123 120 117 113 109 104 98 92 84 77 72 68 66 64 59 53 55 64 73 82 91 91 83 72 59 46 32 21 17 15 16 19 22 20
41 39 37 36 37 46 64 85 102 111 114 114 113 113 112 108 102 97 92 89 88 88 91 104 120 127 124 120 122 120 101 62 29 11 3 359 357 358 1 6 28 57 94 136 138 137 135 129 124 124 124 122 120 118 114 110 106 100 93 87 87 84 80 78 75 69 70 79 89 95 97 95 87 76 62 44 30 20 15 14 13 12 14 14 11
39 38 35 32 29 33 53 80 98 103 104 105 105 107 111 113 112 110 107 102 98 95 93 96 102 103 98 93 88 80 67 53 40 30 28 33 40 44 47 56 72 86 116 133 129 126 126 125 122 122 122 122 121 122 120 116 113 107 96 91 92 91 90 91 94 94 96 102 107 106 101 93 79 66 51 37 28 21 17 15 12 10 8 6 0
40 42 36 34 28 24 34 61 79 79 81 90 93 92 102 117 124 125 124 121 117 113 109 106 104 100 95 88 81 77 72 64 57 55 57 59 60 62 71 86 97 105 119 126 123 120 120 122 123 125 127 128 130 131 129 125 123 118 108 105 108 111 117 123 120 110 109 110 106 100 93 83 68 55 43 32 24 18 14 12 9 5 1 355 347
40 46 35 28 25 22 17 13 10 17 32 52 57 55 81 125 133 132 133 134 133 131 130 128 125 119 112 104 97 94 87 75 70 70 70 67 69 79 91 99 103 105 110 115 118 119 121 124 127 131 134 136 138 138 134 131 129 127 125 127 130 133 136 135 122 112 110 104 97 89 80 68 54 42 33 24 17 13 8 5 2 357 350 343 335
30 37 33 26 21 14 348 328 331 346 5 13 11 11 26 167 169 159 150 149 148 148 148 147 144 138 130 121 114 110 101 87 80 79 80 81 84 88 90 93 96 98 100 105 111 116 119 122 125 128 129 131 131 126 121 118 118 120 124 129 131 130 125 117 111 110 105 97 91 82 69 56 42 30 21 15 11 8 2 354 351 346 339 334 326
7 12 22 25 24 15 346 335 24 56 59 42 24 16 14 244 214 208 198 184 175 172 169 167 164 160 154 146 138 132 122 106 92 88 90 95 95 90 86 88 90 94 100 105 110 114 115 116 116 115 114 112 106 100 97 98 100 105 110 113 112 110 109 110 110 107 98 90 84 69 53 43 32 22 16 10 5 1 353 343 338 334 330 327 322
337 336 349 12 24 24 265 166 130 113 84 35 13 3 359 324 234 223 220 214 206 202 198 193 188 183 177 170 163 156 148 135 117 107 104 103 98 89 84 82 84 93 104 110 112 112 112 110 106 101 96 92 86 84 81 80 80 82 81 81 84 93 104 107 101 93 83 72 65 53 41 34 26 17 11 3 355 350 344 337 330 325 324 326 324
327 322 322 323 213 206 216 219 230 289 321 328 320 302 279 250 229 224 221 216 216 217 214 211 209 204 194 186 182 178 170 161 148 134 124 117 108 94 85 83 90 102 113 118 117 114 113 110 103 95 89 83 76 72 66 61 61 56 44 35 31 50 87 90 70 62 51 43 40 34 26 21 16 9 4 358 347 341 337 332 326 322 322 323 323
323 314 314 316 278 234 232 240 258 289 314 328 327 315 293 264 245 239 232 224 226 228 225 223 222 217 206 200 198 194 186 176 166 155 146 140 132 121 109 104 109 118 125 127 124 120 116 112 106 98 90 80 70 61 52 44 36 23 4 343 320 307 289 275 347 22 27 27 26 23 16 11 6 1 358 351 340 334 332 327 321 319 317 316 316
316 309 309 318 314 276 251 247 259 283 305 316 323 323 313 288 266 258 252 243 240 241 240 240 238 227 215 208 205 201 196 188 177 166 160 155 147 141 136 128 123 130 135 134 131 127 121 117 111 102 90 78 64 50 36 24 11 353 333 313 296 276 252 240 302 19 32 31 25 20 14 10 5 1 356 348 337 332 329 325 320 319 317 315 315
307 302 301 307 309 296 276 266 267 277 288 297 306 312 308 296 286 280 275 266 257 251 248 247 244 232 217 208 203 201 200 193 182 172 168 163 157 153 148 143 141 142 138 132 128 123 116 111 106 92 76 65 52 38 29 18 7 352 328 303 270 235 217 201 146 68 47 35 26 18 14 11 5 358 351 343 334 329 328 326 323 320 317 317 317
302 298 295 293 291 288 281 277 276 278 283 288 294 298 299 296 290 284 276 268 264 264 264 259 251 238 218 205 199 196 193 186 179 173 168 162 159 159 158 159 158 152 144 135 127 114 94 81 74 59 45 38 28 21 16 7 358 351 335 293 200 201 216 192 124 85 52 35 25 17 11 5 357 349 344 339 333 328 326 325 323 321 319 319 320
305 304 301 295 291 287 283 282 284 288 291 294 294 293 292 290 286 278 265 254 250 253 257 259 257 246 221 202 192 187 185 182 178 173 165 159 159 161 164 166 164 158 154 148 136 114 75 49 41 33 26 17 9 3 1 354 348 356 52 47 2 316 282 251 97 60 41 29 18 10 4 358 351 346 344 340 333 326 323 324 324 322 321 320 320
308 306 303 298 295 292 290 291 293 295 295 296 295 292 289 288 285 277 262 248 243 243 244 244 243 236 219 200 189 185 185 184 178 170 163 160 161 165 167 168 168 165 164 161 147 122 78 49 40 30 19 6 355 354 355 342 270 203 2 354 342 317 278 258 47 39 26 16 8 3 359 355 352 350 348 343 334 326 321 321 322 320 318 318 317
300 297 298 298 297 295 294 295 296 298 297 296 294 292 290 288 284 280 271 259 250 247 242 232 224 217 208 196 188 186 186 182 174 168 164 162 164 166 168 169 172 176 179 180 181 173 83 37 24 14 8 359 352 358 355 233 212 259 329 334 333 303 266 284 19 24 14 4 357 354 353 352 351 351 350 347 341 330 320 317 318 317 315 314 314
294 294 295 295 294 293 292 292 292 292 291 291 290 291 291 289 282 277 272 266 256 248 238 221 206 198 193 189 186 184 182 176 169 166 166 166 167 172 182 191 194 193 193 195 199 208 262 331 342 351 353 344 340 352 299 218 235 283 306 293 250 238 236 215 31 14 1 350 343 344 352 353 350 348 348 348 343 332 321 318 317 316 314 312 313
285 285 286 286 286 286 287 289 291 289 287 287 287 288 288 286 277 267 261 256 250 245 238 222 205 198 195 192 189 185 179 175 173 173 175 180 185 196 209 211 207 204 206 209 217 236 266 295 311 329 338 331 320 320 278 235 252 275 283 264 241 229 208 26 360 351 344 337 334 346 354 351 346 344 342 339 335 329 323 317 315 316 314 312 313
285 286 286 286 285 284 284 286 288 288 287 286 287 287 286 281 271 260 252 247 242 238 233 224 215 211 206 199 193 188 184 181 181 182 183 187 195 206 211 212 213 217 223 227 234 246 261 281 297 309 317 318 309 303 292 268 257 264 277 267 238 219 296 338 333 334 336 334 337 344 344 339 339 344 344 337 329 327 322 313 313 318 316 312 313
289 291 292 288 282 279 280 282 287 291 289 284 280 279 277 270 261 252 243 234 225 218 212 210 214 214 208 198 192 190 189 189 192 195 198 202 211 217 217 217 219 222 224 229 238 247 255 267 279 289 300 302 294 289 288 283 273 279 292 278 248 267 308 310 311 326 331 324 327 336 334 328 335 348 349 339 326 325 323 316 314 316 315 313 315
288 293 296 289 275 264 262 263 266 272 276 275 272 265 255 244 234 225 219 213 207 200 196 197 202 203 199 194 194 198 204 210 215 215 216 219 224 224 221 220 220 220 222 228 236 241 245 255 264 272 285 292 291 290 289 281 275 287 296 287 277 286 290 286 296 321 319 310 314 328 328 323 333 348 352 346 332 324 322 317 313 313 313 313 313
Height
832 834 836 839 841 842 844 846 847 849 850 851 852 853 854 855 856 858 858 859 860 861 862 863 864 865 865 866 867 867 868 868 869 870 870 870 871 871 871 871 871 871 872 872 872 872 872 872 871 871 871 871 870 870 870 870 870 869 869 869 868 868 867 867 867 866 865 865 864 863 862 861 860 859 858 857 856 855 853 852 851 849 848 847 846
830 832 834 836 838 840 842 844 845 847 848 850 851 852 853 854 855 856 857 858 859 860 861 861 862 863 864 865 865 866 867 867 868 868 869 869 870 870 870 870 870 870 870 871 871 871 871 870 870 870 870 870 869 869 869 869 869 868 868 868 867 867 866 866 866 865 864 863 863 862 861 861 860 859 858 856 855 854 853 852 850 849 848 846 845
828 830 832 834 836 838 840 842 843 845 846 848 849 850 852 853 854 855 855 857 858 858 859 860 861 862 862 863 864 865 865 866 866 867 867 868 868 869 869 869 869 869 869 869 870 870 870 870 869 869 869 869 868 868 868 868 868 867 867 867 866 866 866 866 865 865 863 862 862 861 860 860 859 858 857 856 854 853 852 851 850 849 848 846 845
827 829 831 832 834 836 838 840 841 843 844 846 847 849 850 851 853 853 854 855 856 857 858 859 860 860 861 862 862 863 864 864 865 866 866 866 867 867 868 868 868 868 868 869 869 869 869 869 868 868 868 868 868 867 867 867 867 866 866 866 865 865 865 865 864 864 863 862 861 860 859 858 858 857 856 854 853 853 851 850 849 848 847 846 844
825 827 829 831 833 834 836 838 839 841 842 844 846 847 849 850 851 852 853 854 854 855 856 857 858 859 859 860 861 861 862 863 863 864 864 865 865 866 866 867 867 867 868 868 868 868 868 868 867 867 867 867 866 866 866 865 865 865 864 864 864 864 864 864 863 863 862 861 860 859 858 857 857 856 855 853 852 851 850 849 848 847 846 845 844
823 825 827 829 831 832 834 836 837 839 840 842 844 845 847 848 849 850 851 852 853 854 855 855 856 857 857 858 859 859 860 861 861 862 863 863 864 864 865 865 866 866 867 867 867 867 867 866 866 866 866 865 865 865 864 864 863 863 862 862 862 862 862 862 862 861 861 860 859 858 858 857 856 855 854 853 851 850 849 848 847 846 845 843 842
822 824 826 827 829 830 832 834 835 837 839 840 842 843 845 846 847 849 850 850 851 852 852 853 854 855 855 856 857 857 858 859 859 860 861 861 862 863 863 864 864 865 865 865 865 866 865 865 865 865 865 864 864 863 863 862 862 861 861 860 860 860 860 860 860 860 859 859 858 858 857 856 855 854 853 853 851 850 848 847 845 845 844 842 841
820 822 824 825 827 828 830 832 833 835 837 839 840 842 843 844 845 847 848 848 849 850 850 851 852 853 853 854 855 855 856 856 857 858 859 859 860 861 861 862 862 863 863 864 864 864 864 863 863 863 863 863 862 862 861 861 861 860 860 859 859 859 858 858 858 858 858 857 857 857 856 855 855 854 853 852 851 850 849 847 846 844 843 842 841
818 820 822 823 825 826 828 830 832 834 835 837 838 840 841 842 843 844 846 846 847 848 849 849 850 851 851 852 853 853 854 854 855 856 857 857 858 859 859 860 860 860 861 861 862 862 862 862 862 862 862 861 861 861 860 860 860 859 859 858 858 857 857 856 856 856 856 856 856 855 854 854 853 853 852 851 850 849 849 848 846 845 843 842 841
816 817 819 820 822 824 826 828 830 832 834 835 836 838 839 840 841 842 843 844 845 846 847 847 848 849 849 850 851 851 852 852 853 854 854 855 856 856 857 857 858 858 859 859 860 860 860 860 860 860 860 860 860 860 859 859 859 858 858 857 857 856 855 855 855 855 855 855 854 854 853 852 852 852 851 850 850 849 848 847 846 845 843 841 840
815 816 817 819 821 823 825 827 830 831 832 834 835 836 838 838 839 840 841 842 843 844 844 845 846 847 847 848 848 849 850 850 851 852 852 853 854 854 855 855 855 856 857 857 857 858 858 858 858 858 858 858 858 858 858 858 857 857 857 856 856 855 855 854 854 854 854 853 853 852 852 851 851 851 850 849 849 848 848 847 846 845 844 842 841
815 816 817 819 821 823 825 826 828 830 831 833 834 835 836 837 838 839 839 840 841 842 843 843 844 845 845 846 846 847 848 848 849 850 851 851 852 852 852 853 853 854 854 855 855 856 856 856 856 856 856 856 856 856 856 856 856 856 856 855 855 854 854 853 853 853 853 852 852 851 851 850 850 850 849 848 848 847 847 847 846 845 844 843 842
815 817 818 819 820 821 823 825 827 828 829 831 832 833 835 835 836 837 837 838 839 840 840 841 842 843 843 844 844 845 846 847 847 848 849 849 850 850 850 851 851 851 852 852 853 853 854 854 854 854 855 855 855 855 855 855 855 855 854 854 854 853 853 852 852 851 851 851 850 850 850 849 849 849 848 847 847 846 846 846 845 845 844 843 842
812 815 817 820 821 822 823 823 824 826 827 828 830 831 832 833 834 835 835 836 837 837 838 839 839 840 841 841 842 843 843 844 845 846 846 847 848 848 849 849 849 849 849 850 850 851 852 852 852 852 853 853 853 854 854 853 853 853 853 852 852 852 851 851 850 850 850 849 849 849 849 849 848 848 847 847 846 846 845 845 844 844 843 842 842
811 813 814 817 819 823 825 826 824 823 824 826 828 829 831 831 832 833 834 834 835 835 836 836 837 837 838 839 839 840 841 841 842 843 844 844 845 846 847 847 847 847 847 848 848 849 849 850 850 850 850 851 851 852 852 852 851 851 851 851 851 850 850 850 849 849 848 848 848 848 848 848 848 847 847 846 846 845 845 845 844 844 843 842 841
812 815 816 816 816 818 824 828 827 824 823 823 825 827 829 830 831 831 832 832 833 833 833 833 834 835 835 836 837 838 838 839 839 840 841 842 843 843 844 845 845 845 845 846 846 847 847 847 847 848 848 849 849 849 850 850 850 850 849 849 849 849 849 848 848 847 847 847 847 847 847 847 847 846 846 846 846 845 845 845 844 843 843 842 841
811 814 816 817 817 817 819 824 828 828 825 822 823 824 826 828 830 832 832 831 830 831 831 831 832 832 833 834 835 835 836 837 837 838 838 839 840 841 842 843 843 844 844 844 844 844 844 845 845 846 846 847 847 847 848 848 848 848 848 847 847 847 847 847 847 846 846 846 846 846 846 846 846 846 846 846 845 845 845 844 844 844 843 843 842
809 810 811 815 818 818 817 819 823 827 827 823 821 822 823 824 827 830 833 832 830 829 829 829 830 830 831 832 833 834 835 835 835 836 836 837 838 838 839 840 841 842 842 842 842 842 842 842 843 844 844 845 845 845 846 846 846 846 846 846 846 846 846 846 846 846 845 845 846 846 846 846 846 846 846 846 845 845 844 844 844 844 843 843 842
809 809 811 816 819 818 817 817 818 823 827 825 821 821 823 824 825 827 831 834 832 829 827 828 828 828 829 830 831 832 833 833 834 834 834 835 835 836 837 838 839 839 840 840 840 840 840 839 840 841 842 842 843 843 843 843 844 844 844 844 844 845 845 846 845 845 845 845 845 846 846 846 846 846 846 846 845 845 844 844 844 844 843 842 842
811 810 812 817 819 816 815 815 816 820 824 824 821 821 823 825 826 827 829 832 833 831 828 827 827 828 829 830 830 830 831 831 832 832 832 832 833 834 835 836 837 838 839 839 839 839 838 838 838 838 839 840 840 841 841 841 842 842 842 843 843 842 843 845 845 844 844 844 845 845 846 846 847 847 847 846 846 845 845 844 844 843 842 842 841
811 811 812 815 815 813 813 814 816 819 823 822 821 820 821 823 825 825 826 828 831 831 829 827 828 830 830 831 831 831 831 831 831 831 831 831 832 832 834 835 836 838 839 839 839 838 838 837 836 836 837 838 839 839 840 840 840 841 841 842 842 842 842 843 844 844 844 844 844 845 846 846 847 847 847 847 846 846 845 844 844 843 842 842 841
809 808 809 811 811 812 813 815 817 820 821 821 820 820 821 822 823 823 824 826 829 830 829 828 829 830 831 832 832 832 832 831 831 830 830 830 830 831 833 834 835 837 838 838 838 838 837 836 835 836 836 837 837 838 838 839 839 840 840 841 841 842 843 842 843 844 845 845 845 846 846 847 847 848 848 847 847 847 846 845 844 844 843 842 841
808 809 810 812 813 815 817 819 820 820 820 821 821 821 822 823 823 823 824 826 828 829 828 828 829 830 831 832 833 833 832 831 830 830 830 830 830 831 832 833 835 836 837 837 837 837 837 836 835 835 836 836 836 837 837 838 839 840 841 840 840 841 842 842 842 844 845 846 846 846 847 847 848 848 848 848 848 847 846 846 845 845 844 843 842
810 812 814 816 818 820 821 822 821 820 820 819 819 820 820 821 821 822 824 826 828 829 830 830 831 831 832 833 833 834 833 831 831 831 831 831 831 832 833 834 835 837 838 838 837 838 839 838 835 834 835 836 836 837 838 838 839 842 843 841 839 839 841 841 842 843 845 845 846 846 847 848 848 848 849 848 848 847 847 846 846 845 845 844 843
814 815 817 819 821 822 823 822 821 820 820 819 819 820 820 821 822 823 825 827 830 831 832 833 833 833 833 833 833 834 834 832 832 833 833 832 833 834 835 835 836 838 838 838 839 840 840 840 838 836 836 837 837 838 838 839 840 842 843 841 839 839 840 841 842 843 844 845 846 847 847 847 848 848 848 848 848 847 847 847 846 846 845 844 843
818 819 820 821 823 823 824 824 823 823 823 823 824 824 825 825 827 828 828 830 832 833 833 833 833 833 833 833 833 834 835 834 834 835 835 834 835 836 836 836 837 837 837 837 839 840 840 841 841 840 839 839 839 839 839 839 840 842 842 841 840 840 841 842 843 844 845 846 847 847 847 847 848 848 848 848 848 848 847 847 847 846 845 845 844
822 823 823 824 825 826 826 827 827 827 827 827 827 828 829 829 830 831 831 832 833 833 833 833 833 833 833 833 834 835 836 836 836 836 836 836 836 837 837 837 837 838 837 838 840 840 840 840 840 841 841 840 840 840 840 841 842 842 842 842 841 842 843 843 844 845 845 846 847 847 848 848 848 848 848 848 848 848 848 848 847 846 846 845 844
824 825 826 827 828 828 829 829 829 829 830 830 830 830 831 831 832 832 833 833 833 834 834 834 834 834 834 835 835 836 837 837 837 837 837 837 837 838 838 838 839 839 839 840 840 840 840 840 839 840 841 842 843 843 843 843 843 844 843 843 843 844 845 845 846 846 846 847 847 847 848 848 848 848 848 848 849 849 849 848 847 847 846 845 844
827 827 828 828 829 830 830 831 831 831 831 831 831 832 832 833 833 833 833 833 834 834 834 835 835 836 836 836 836 837 837 838 838 838 838 838 839 839 840 840 841 841 840 840 839 840 840 840 839 840 841 843 844 845 845 845 845 845 845 844 845 845 846 846 846 847 847 847 847 848 848 848 848 848 849 849 849 849 849 848 848 847 846 845 844
828 829 829 830 830 831 831 832 832 832 832 833 833 833 834 834 834 834 834 834 834 835 835 836 836 837 837 837 837 838 838 839 839 839 839 839 840 840 840 841 841 841 841 840 840 840 840 840 841 841 842 843 845 845 846 846 847 847 846 846 846 846 847 847 847 847 848 848 848 848 849 849 849 849 849 849 850 850 849 849 848 847 846 845 844
829 829 830 830 831 831 832 832 833 833 834 834 834 835 835 835 835 835 835 835 835 836 836 836 837 838 838 838 838 839 839 840 840 840 840 840 840 840 840 840 841 841 841 841 840 841 841 842 842 843 844 845 846 847 847 847 848 848 847 847 847 848 848 848 848 848 848 848 848 849 849 849 849 849 850 850 850 850 849 849 848 847 846 845 844
830 831 831 831 831 832 832 832 833 834 834 835 836 836 836 836 836 837 837 837 837 837 837 838 839 839 840 840 840 840 841 841 841 841 841 841 841 840 840 840 840 841 841 841 841 841 842 843 844 845 845 846 847 848 848 849 849 849 849 849 849 850 849 849 849 849 849 849 849 849 849 850 850 850 850 850 850 850 849 848 848 847 846 845 845
832 832 833 833 833 833 833 833 834 834 835 835 836 836 837 837 837 837 838 838 838 838 838 839 840 840 841 841 841 842 842 842 842 842 842 841 841 841 841 841 841 841 842 841 842 842 843 844 845 846 847 847 848 848 849 849 849 850 850 850 851 851 851 851 851 850 850 850 849 849 849 850 850 850 850 850 850 850 849 848 848 847 846 845 844
833 833 833 834 834 834 834 834 835 835 836 836 837 837 838 838 838 838 839 839 839 840 840 840 841 841 842 842 843 843 843 843 843 843 843 843 843 843 843 843 843 843 843 843 843 844 844 845 846 847 848 849 849 849 849 850 850 850 850 851 851 852 852 852 852 851 851 850 850 850 850 850 850 851 851 850 850 850 849 848 848 847 846 845 844
834 834 834 834 834 834 835 835 835 836 836 837 837 838 838 839 839 839 840 840 840 841 841 842 842 842 843 843 844 844 844 844 844 844 844 845 845 845 845 845 845 845 845 845 845 846 846 847 848 848 849 849 850 851 850 850 850 851 851 851 852 852 853 853 853 852 852 851 851 850 851 851 851 851 851 851 850 850 849 848 848 847 846 845 844
834 834 834 834 834 835 835 835 835 836 836 837 837 838 838 839 839 840 841 841 841 842 842 843 843 843 844 844 845 846 846 846 846 846 846 846 847 847 847 847 847 848 848 848 848 848 848 849 849 850 850 851 851 852 851 851 851 851 852 852 852 853 853 853 853 853 852 852 852 851 851 851 852 852 852 851 851 850 849 848 847 847 846 845 843
834 834 834 835 835 835 835 835 836 836 837 837 837 838 838 839 839 840 841 841 842 842 843 843 844 844 845 845 846 846 847 847 847 847 847 848 848 849 849 849 849 849 850 850 850 850 850 851 851 851 852 852 853 853 852 852 852 852 852 853 853 853 853 853 853 853 853 853 852 852 852 852 852 852 852 851 851 850 849 848 847 846 845 844 843
833 833 834 834 835 835 835 836 836 837 837 838 838 838 839 839 839 840 840 841 841 842 843 843 844 844 845 845 846 847 847 848 848 848 848 849 849 850 850 850 851 851 851 851 851 851 852 852 853 853 853 854 854 854 854 853 853 854 854 854 854 854 854 854 853 853 853 853 853 852 852 852 851 851 851 851 850 849 848 847 846 845 844 843 842
833 833 833 834 834 835 835 835 836 837 837 837 838 838 839 839 839 840 840 840 841 842 842 843 843 844 844 845 846 846 847 848 848 849 849 850 850 851 851 852 852 852 852 852 852 853 853 853 854 854 854 854 854 854 855 855 855 855 855 855 855 854 854 854 853 853 853 853 853 852 852 851 851 851 851 850 850 848 847 846 845 844 843 842 841
833 833 833 833 834 834 835 835 836 836 836 837 837 838 838 839 839 839 840 840 841 841 842 842 843 843 844 845 846 846 847 848 848 849 850 850 851 851 852 852 852 853 853 853 853 854 854 854 854 855 855 855 855 855 855 856 856 856 856 856 855 855 854 854 853 853 853 853 853 853 852 852 851 851 850 850 849 848 846 845 844 843 842 841 841
833 833 834 833 834 834 834 835 835 836 836 836 837 837 837 838 838 839 839 840 840 841 841 841 842 842 843 845 845 846 847 847 848 849 850 850 851 851 852 852 853 853 853 854 854 855 855 855 855 855 855 855 855 855 855 856 855 855 855 855 855 855 854 854 853 853 853 853 853 853 853 852 851 851 850 849 848 847 846 845 843 842 842 841 840
833 834 834 834 834 834 834 835 835 835 836 836 836 836 837 837 837 838 838 838 839 840 840 841 841 841 842 843 844 845 846 847 847 848 849 850 851 851 852 852 853 853 854 854 855 855 855 856 856 856 856 856 855 855 855 855 855 855 855 855 854 854 854 853 853 853 853 853 853 853 853 852 851 851 850 849 847 846 845 844 843 842 841 840 840
833 833 833 833 834 834 834 834 835 835 835 835 836 836 836 836 837 837 837 837 838 838 839 839 840 840 841 842 843 844 845 846 847 848 849 849 850 851 852 852 853 853 854 854 854 855 855 855 855 856 855 855 855 855 855 855 855 854 854 854 854 854 853 853 853 853 853 853 853 853 852 852 851 850 849 848 846 845 844 843 842 841 840 840 839
832 832 833 833 833 833 833 834 834 834 834 834 835 835 835 836 836 836 837 837 837 838 838 839 839 840 840 841 842 843 844 845 846 847 848 849 850 851 851 852 852 853 853 854 854 854 854 854 855 855 855 855 855 855 854 854 854 854 854 854 853 853 853 853 853 853 853 853 853 853 852 852 850 849 848 846 845 844 843 842 841 840 839 839 838
832 832 832 832 832 833 832 832 833 833 833 833 833 833 833 834 835 835 836 836 836 837 837 837 838 839 840 840 841 842 843 844 845 846 847 848 849 850 851 851 852 853 853 854 854 854 854 854 854 854 854 854 854 854 854 854 853 853 853 853 853 853 852 853 853 853 853 853 853 853 852 851 850 849 847 845 844 843 842 841 840 839 838 838 838
833 832 832 832 832 832 832 832 832 831 831 831 831 831 831 832 833 833 834 835 835 836 836 836 837 838 839 840 841 842 843 844 844 845 846 847 848 849 850 851 852 852 853 853 854 854 854 853 853 853 853 853 853 853 853 853 853 853 853 852 852 852 852 852 853 853 853 853 853 852 851 850 849 848 846 844 843 842 841 840 839 839 838 838 837
832 832 832 832 832 832 831 831 831 831 830 830 830 830 830 831 831 831 832 833 834 834 835 836 837 838 839 841 842 842 843 844 845 845 846 847 848 849 850 850 851 852 852 853 854 854 853 853 853 852 852 852 852 852 852 852 852 852 852 852 852 852 852 852 853 853 853 853 852 851 851 850 848 847 845 844 842 841 840 839 839 838 838 837 837
832 831 832 831 831 831 831 831 830 830 830 830 830 830 830 830 830 830 830 831 832 832 833 834 836 837 838 840 841 841 842 843 844 844 845 846 847 848 849 850 851 851 852 852 853 853 853 853 852 852 852 852 852 852 852 852 852 851 851 851 852 852 852 852 852 852 852 852 851 851 850 849 848 846 845 843 842 841 840 839 838 838 837 837 836
830 830 830 830 830 830 830 830 830 830 829 829 830 829 829 829 829 829 829 830 831 831 832 833 835 836 837 838 840 840 841 841 842 843 844 845 847 848 849 849 850 851 851 851 852 852 852 852 852 851 851 851 851 851 851 851 851 851 851 851 851 851 851 851 851 851 851 851 851 850 849 848 847 846 844 842 841 840 839 839 838 837 837 836 835
829 829 829 829 829 829 829 829 829 829 829 829 829 829 829 829 829 829 829 830 830 831 832 833 834 835 837 838 839 840 840 841 842 843 844 845 846 846 847 848 849 850 850 851 852 852 852 852 851 851 851 851 851 851 851 851 850 850 850 850 850 851 851 851 851 851 851 850 850 849 848 847 846 845 843 842 840 839 839 838 838 837 836 835 834
828 828 828 828 828 828 828 828 828 829 829 829 829 829 829 829 829 829 830 830 831 831 832 833 834 835 836 837 838 839 840 840 841 842 842 843 844 845 846 847 848 848 849 850 850 851 851 851 851 851 851 851 851 850 850 850 850 850 850 850 850 850 850 850 850 850 850 849 849 848 847 846 845 844 842 841 840 839 838 838 837 836 836 835 834